| time (UTC) | temp C | wind direction | speed KPH | gust KPH | rain 1hr cm | rain 24hr cm | rain mn cm | humidity % | barometer mb |
| 20260505111547 | 12 | 259 | 0.0 | 8.0 | 0.00 | 0.00 | 0.00 | 63 | 1008.5 |
| 20260505101546 | 10 | 273 | 0.0 | 0.0 | 0.00 | 0.00 | 0.00 | 58 | 1008.4 |
| 20260505100037 | 10 | 274 | 0.0 | 0.0 | 0.00 | 0.00 | 0.00 | 57 | 1008.4 |
| 20260505094609 | 10 | 250 | 0.0 | 0.0 | 0.00 | 0.00 | 0.00 | 58 | 1008.4 |
| 20260505093033 | 9 | 250 | 0.0 | 0.0 | 0.00 | 0.00 | 0.00 | 57 | 1008.5 |
| 20260505091517 | 9 | 250 | 0.0 | 0.0 | 0.00 | 0.00 | 0.00 | 56 | 1008.5 |
| 20260505090053 | 10 | 256 | 0.0 | 1.6 | 0.00 | 0.00 | 0.00 | 59 | 1008.5 |
| 20260505084523 | 10 | 120 | 0.0 | 0.0 | 0.00 | 0.00 | 0.00 | 61 | 1008.5 |
| 20260505083049 | 10 | 113 | 0.0 | 0.0 | 0.00 | 0.00 | 0.00 | 63 | 1008.7 |
| 20260505081523 | 11 | 132 | 0.0 | 1.6 | 0.00 | 0.00 | 0.00 | 64 | 1008.8 |
| 20260505080051 | 11 | 122 | 0.0 | 3.2 | 0.00 | 0.00 | 0.00 | 64 | 1008.9 |
| 20260505074531 | 11 | 222 | 0.0 | 0.0 | 0.00 | 0.00 | 0.00 | 64 | 1008.9 |
| 20260505073027 | 11 | 223 | 0.0 | 0.0 | 0.00 | 0.00 | 0.00 | 64 | 1008.9 |
| 20260505071534 | 12 | 222 | 0.0 | 3.2 | 0.00 | 0.00 | 0.00 | 64 | 1008.9 |
| 20260505070011 | 12 | 277 | 0.0 | 4.8 | 0.00 | 0.00 | 0.00 | 64 | 1008.8 |
| 20260505064509 | 12 | 277 | 0.0 | 4.8 | 0.00 | 0.00 | 0.00 | 63 | 1008.9 |
| 20260505063006 | 12 | 257 | 0.0 | 3.2 | 0.00 | 0.00 | 0.00 | 62 | 1008.9 |
| 20260505061534 | 13 | 276 | 1.6 | 6.4 | 0.00 | 0.00 | 0.00 | 62 | 1009.0 |
| 20260505060018 | 13 | 286 | 1.6 | 8.0 | 0.00 | 0.00 | 0.00 | 61 | 1009.0 |
| 20260505054520 | 13 | 248 | 3.2 | 6.4 | 0.00 | 0.00 | 0.00 | 61 | 1009.1 |
| 20260505053017 | 13 | 277 | 3.2 | 9.7 | 0.00 | 0.00 | 0.00 | 60 | 1009.0 |
| 20260505051544 | 13 | 274 | 1.6 | 6.4 | 0.00 | 0.00 | 0.00 | 59 | 1009.2 |
| 20260505041604 | 14 | 276 | 0.0 | 6.4 | 0.00 | 0.00 | 0.00 | 56 | 1009.1 |
| 20260505040041 | 15 | 236 | 1.6 | 9.7 | 0.00 | 0.00 | 0.00 | 54 | 1009.0 |
| 20260505034516 | 15 | 213 | 3.2 | 8.0 | 0.00 | 0.00 | 0.00 | 54 | 1008.8 |
| 20260505033003 | 15 | 288 | 0.0 | 9.7 | 0.00 | 0.00 | 0.00 | 53 | 1008.8 |
| 20260505031506 | 15 | 290 | 1.6 | 6.4 | 0.00 | 0.00 | 0.00 | 52 | 1008.8 |
| 20260505030056 | 16 | 151 | 1.6 | 11.3 | 0.00 | 0.00 | 0.00 | 52 | 1008.7 |
| 20260505024525 | 16 | 276 | 1.6 | 11.3 | 0.00 | 0.00 | 0.00 | 51 | 1008.6 |
| 20260505023050 | 16 | 285 | 3.2 | 11.3 | 0.00 | 0.00 | 0.00 | 50 | 1008.6 |
| 20260505021549 | 16 | 273 | 4.8 | 12.9 | 0.00 | 0.00 | 0.00 | 49 | 1008.6 |
| 20260505020049 | 17 | 274 | 6.4 | 17.7 | 0.00 | 0.00 | 0.00 | 48 | 1008.4 |
| 20260505014536 | 17 | 281 | 6.4 | 20.9 | 0.00 | 0.00 | 0.00 | 48 | 1008.2 |
| 20260505013007 | 16 | 276 | 1.6 | 17.7 | 0.00 | 0.00 | 0.00 | 48 | 1008.0 |
| 20260505011509 | 15 | 200 | 0.0 | 3.2 | 0.00 | 0.00 | 0.00 | 50 | 1007.6 |
| 20260505010012 | 16 | 273 | 0.0 | 0.0 | 0.00 | 0.00 | 0.00 | 47 | 1007.2 |
| 20260505004547 | 16 | 273 | 0.0 | 0.0 | 0.00 | 0.00 | 0.00 | 45 | 1007.0 |
| 20260505003031 | 17 | 273 | 0.0 | 0.0 | 0.00 | 0.00 | 0.00 | 43 | 1006.7 |
| 20260505001554 | 17 | 273 | 0.0 | 0.0 | 0.00 | 0.00 | 0.00 | 41 | 1006.4 |
| 20260505000043 | 18 | 273 | 0.0 | 0.0 | 0.00 | 0.00 | 0.00 | 39 | 1006.1 |
| 20260504234523 | 19 | 259 | 0.0 | 1.6 | 0.00 | 0.00 | 0.00 | 37 | 1006.0 |
| 20260504233022 | 20 | 276 | 1.6 | 8.0 | 0.00 | 0.00 | 0.00 | 36 | 1005.9 |
| 20260504231503 | 20 | 274 | 0.0 | 1.6 | 0.00 | 0.00 | 0.00 | 35 | 1005.7 |
| 20260504230104 | 20 | 278 | 0.0 | 4.8 | 0.00 | 0.00 | 0.00 | 34 | 1005.5 |
| 20260504224510 | 21 | 293 | 0.0 | 3.2 | 0.00 | 0.00 | 0.00 | 34 | 1005.3 |
| 20260504223103 | 21 | 288 | 0.0 | 8.0 | 0.00 | 0.00 | 0.00 | 34 | 1005.2 |
| 20260504221557 | 21 | 283 | 1.6 | 8.0 | 0.00 | 0.00 | 0.00 | 33 | 1005.2 |
| 20260504220059 | 21 | 283 | 1.6 | 8.0 | 0.00 | 0.00 | 0.00 | 32 | 1005.2 |
| 20260504214543 | 22 | 285 | 6.4 | 20.9 | 0.00 | 0.00 | 0.00 | 31 | 1005.2 |
| 20260504213002 | 22 | 293 | 1.6 | 9.7 | 0.00 | 0.00 | 0.00 | 32 | 1005.1 |
| 20260504211543 | 22 | 285 | 4.8 | 12.9 | 0.00 | 0.00 | 0.00 | 31 | 1005.2 |
| 20260504210010 | 22 | 273 | 4.8 | 12.9 | 0.00 | 0.00 | 0.00 | 33 | 1005.1 |
| 20260504204550 | 22 | 288 | 1.6 | 11.3 | 0.00 | 0.00 | 0.00 | 32 | 1005.0 |
| 20260504203012 | 21 | 286 | 3.2 | 12.9 | 0.00 | 0.00 | 0.00 | 32 | 1005.2 |
| 20260504201552 | 22 | 285 | 6.4 | 14.5 | 0.00 | 0.00 | 0.00 | 31 | 1005.2 |
| 20260504200019 | 21 | 283 | 9.7 | 16.1 | 0.00 | 0.00 | 0.00 | 31 | 1005.1 |
| 20260504194558 | 22 | 268 | 6.4 | 11.3 | 0.00 | 0.00 | 0.00 | 30 | 1005.2 |
| 20260504193043 | 21 | 226 | 1.6 | 12.9 | 0.00 | 0.00 | 0.00 | 31 | 1005.3 |
| 20260504191503 | 22 | 224 | 4.8 | 12.9 | 0.00 | 0.00 | 0.00 | 30 | 1005.3 |
| 20260504190043 | 21 | 285 | 4.8 | 19.3 | 0.00 | 0.00 | 0.00 | 32 | 1005.2 |
| 20260504184507 | 20 | 298 | 3.2 | 20.9 | 0.00 | 0.00 | 0.00 | 32 | 1005.4 |
| 20260504183057 | 21 | 232 | 11.3 | 17.7 | 0.00 | 0.00 | 0.00 | 31 | 1005.6 |
| 20260504181556 | 20 | 260 | 4.8 | 17.7 | 0.00 | 0.00 | 0.00 | 31 | 1005.5 |
| 20260504180054 | 21 | 295 | 6.4 | 16.1 | 0.00 | 0.00 | 0.00 | 31 | 1005.5 |
| 20260504174518 | 21 | 276 | 6.4 | 16.1 | 0.00 | 0.00 | 0.00 | 31 | 1005.6 |
| 20260504173003 | 20 | 293 | 6.4 | 17.7 | 0.00 | 0.00 | 0.00 | 32 | 1005.8 |
| 20260504171502 | 20 | 264 | 8.0 | 22.5 | 0.00 | 0.00 | 0.00 | 32 | 1005.9 |